Back to catalog

STARLINK-1134

AliveCommunicationsVLEO
NORAD 45048·PAYLOAD·🇺🇸 United States

Launched Jan 29, 2020 from Cape Canaveral Space Force Station

Loading…

Next Passes (next 24 hours)

TLE

FreshSource: CelesTrak SupGP

Epoch: Sep 14, 2026, 20:06 UTC

1 45048C 20006E   26257.83798611  .00094658  00000+0  80006-3 0  2579
2 45048  53.0202  39.9073 0004986  60.7007 151.9706 15.69019545    18

Track STARLINK-1134 in real time with AllMySat

Download on the App Store